Location: Killam
(52.7910°N, 111.8608°W)
Time: 12:15:45
(UTC+00:00)

METEOR M2 - Pass Details

Date: 23 March 2026
Orbit: 817 x 824 km, 98.5° (Epoch: 14 April)

Event Time Altitude Azimuth Distance (km) Brightness Sun altitude
Rises 10:19:33 0° 27° (NNE) 3,374 ? -26.0°
Reaches altitude 10° 10:23:01 10° 50° (NE) 2,435 ? -25.6°
Maximum altitude 10:26:04 15° 85° (E) 2,087 ? -25.3°
Drops below altitude 10° 10:29:06 10° 120° (ESE) 2,423 ? -24.9°
Sets 10:32:31 0° 143° (SE) 3,348 ? -24.5°
